Flag for Germany Weather past 2 weeks in Bingen am Rhein, Rhineland-Palatinate, Germany

Now
67 °F

Partly sunny.


Feels Like: 67 °F
Forecast: 49 / 73 °F
Wind: 6 mph from North

Location: Wiesbaden Airport

Current Time: Jul 30, 2015 at 1:14:30 PM

Latest Report: Jul 30, 2015 at 11:58 AM


Visibility: N/A

Pressure: 29.98 "Hg

Humidity: 42%

Dew point: 44 °F

Location of Bingen am RheinLocation

Historic Weather in Bingen am Rhein — Graph

°F

Bingen am Rhein temperature yesterday

Maximum temperature yesterday: 70 °F (at 5:58 PM)
Minimum temperature yesterday: 55 °F (at 11:58 PM)
Average temperature yesterday: 63 °F

Past Weeks' High & Low Weather Summary

 TemperatureHumidityPressure
High95 °F (Jul 17, 4:58 PM)100% (Jul 18, 2:58 AM)30.12 "Hg (Jul 18, 2:58 AM)
Low49 °F (Jul 26, 5:58 AM)26% (Jul 17, 2:58 PM)29.62 "Hg (Jul 24, 10:58 PM)
Average72 °F62%29.89 "Hg
* Reported Jul 15 11:58 AM — Jul 30 11:58 AM, Bingen am Rhein, Weather by CustomWeather, © 2015

Note: Actual official high and low records may vary slightly from our data, if they occured in-between our weather recording intervals... More about our weather records

Advertising

Bingen am Rhein weather history for previous 24 hours

 ConditionsComfort  
Time TempWeatherWind HumidityBarometerVisibility
11:58 AM
Thu, Jul 30
67 °FPartly sunny.6 mph42%29.98 "HgN/A
10:58 AM63 °FScattered clouds.2 mph53%29.98 "HgN/A
9:58 AM62 °FSunny.9 mph56%29.98 "HgN/A
8:58 AM59 °FSunny.8 mph62%29.99 "HgN/A
7:58 AM54 °FSunny.6 mph74%29.98 "HgN/A
6:58 AM50 °FSunny.No wind82%29.98 "HgN/A
5:58 AM50 °FClear.3 mph79%29.97 "HgN/A
4:58 AM50 °FClear.2 mph76%29.96 "HgN/A
3:58 AM50 °FClear.2 mph76%29.96 "HgN/A
2:58 AM50 °FClear.3 mph76%29.95 "HgN/A
1:58 AM52 °FClear.6 mph72%29.95 "HgN/A
12:58 AM54 °FClear.3 mph72%29.95 "HgN/A
11:58 PM
Wed, Jul 29
55 °FClear.5 mph66%29.93 "HgN/A
10:58 PM57 °FClear.6 mph59%29.92 "HgN/A
9:58 PM64 °FBroken clouds.7 mph47%29.91 "HgN/A
8:58 PM64 °FPassing clouds.8 mph43%29.88 "HgN/A
8:02 PM68 °FScattered clouds.13 mph38%29.86 "HgN/A
7:58 PM69 °FBroken clouds.13 mph39%29.85 "HgN/A
6:58 PM68 °FPartly sunny.15 mph37%29.84 "HgN/A
5:58 PM70 °FMore clouds than sun.16 mph33%29.83 "HgN/A
4:58 PM69 °FBroken clouds.17 mph34%29.80 "HgN/A
3:58 PM70 °FPartly sunny.13 mph35%29.79 "HgN/A
2:58 PM68 °FPartly sunny.14 mph46%29.78 "HgN/A
1:58 PM67 °FPassing clouds.17 mph53%29.79 "HgN/A
1:02 PM64 °FScattered clouds.13 mph56%29.80 "HgN/A
Weather by CustomWeather, © 2015

See weather overviewHow to use our weather pages